Petit Wanze, Belgium

5:12 PM CEST on April 19, 2018 (GMT +0200)
Petit Wanze

Weather History for 06478 - October, 2012

Change the Weather History Date:

Sunday, October 21, 2012

  Actual Average Record
Temperature  
Mean Temperature 60 °F -  
Max Temperature 67 °F 49 °F - ()
Min Temperature 53 °F 39 °F - ()
Degree Days  
Heating Degree Days 5    
Growing Degree Days 10 (Base 50)    
Moisture  
Dew Point 56 °F    
Average Humidity 87    
Maximum Humidity 100    
Minimum Humidity 67    
Precipitation  
Precipitation 0.00 in - - ()
Sea Level Pressure  
Sea Level Pressure 30.01 in    
Wind  
Wind Speed 4 mph ()    
Max Wind Speed 9 mph    
Max Gust Speed 29 mph    
Visibility 3.2 miles    
Events Fog    
T = Trace of Precipitation, MM = Missing Value Source: Averaged Metar Reports

Daily Weather History Graph

Daily Weather History Graph

Search for Another Location

Airport or City:

Astronomy

Oct. 21, 2012 Rise Set
Actual Time 8:11 AM CEST 6:33 PM CEST
Civil Twilight 7:37 AM CEST 7:06 PM CEST
Nautical Twilight 6:59 AM CEST 7:44 PM CEST
Astronomical Twilight 6:21 AM CEST 8:22 PM CEST
Moon 2:35 PM CEST (10/21) 11:57 PM CEST (10/21)
Length of Visible Light 11h 28m
Length of Day
10h 21m
Waxing Crescent, 42% of the Moon is Illuminated
Oct 21
Waxing Crescent
Oct 22
First Quarter
Oct 29
Full
Nov 7
Last Quarter
Nov 13
New

Hourly Weather History & Observations

Time (CEST) Temp. Dew Point Humidity Pressure Visibility Wind Dir Wind Speed Gust Speed Precip Events Conditions
12:20 AM 57.2 °F 55.4 °F 94% 30.01 in 4.3 mi East 3.5 mph - N/A   Unknown
12:50 AM 57.2 °F 53.6 °F 88% 30.01 in 4.3 mi East 3.5 mph - N/A   Unknown
1:20 AM 57.2 °F 55.4 °F 94% 30.01 in 3.7 mi East 3.5 mph - N/A   Unknown
1:50 AM 57.2 °F 55.4 °F 94% 30.01 in 3.1 mi East 4.6 mph - N/A   Mist
2:00 AM 57 °F 55 °F 90% 30.00 in 3 mi East 4.5 mph - -   Mist
2:20 AM 57.2 °F 55.4 °F 94% 29.98 in - Variable 1.2 mph - N/A   Mist
2:50 AM 59.0 °F 55.4 °F 88% 29.98 in - ESE 6.9 mph 28.8 mph N/A   Mist
3:20 AM 59.0 °F 55.4 °F 88% 29.98 in - ESE 6.9 mph - N/A   Mist
3:50 AM 59.0 °F 55.4 °F 88% 29.98 in 3.1 mi SE 8.1 mph - N/A   Mist
4:20 AM 59.0 °F 55.4 °F 88% 29.98 in 4.3 mi SE 8.1 mph - N/A   Unknown
4:50 AM 60.8 °F 55.4 °F 82% 29.98 in 4.3 mi SE 8.1 mph - N/A   Unknown
5:00 AM 60 °F 55 °F 79% 29.97 in 4 mi SE 8.9 mph - -   Partly Cloudy
5:20 AM 57.2 °F 55.4 °F 94% 29.98 in 5.0 mi Variable 2.3 mph - N/A   Unknown
5:50 AM 57.2 °F 53.6 °F 88% 29.98 in 5.0 mi SSE 3.5 mph - N/A   Unknown
6:20 AM 60.8 °F 55.4 °F 82% 29.98 in - SSE 5.8 mph - N/A   Clear
6:50 AM 55.4 °F 53.6 °F 94% 29.98 in 4.3 mi WNW 5.8 mph - N/A   Unknown
7:20 AM 53.6 °F 53.6 °F 100% 30.01 in 0.1 mi NW 4.6 mph - N/A Fog Fog
7:50 AM 53.6 °F 53.6 °F 100% 30.01 in 0.0 mi NNW 4.6 mph - N/A Fog Fog
8:00 AM 54 °F 53 °F 95% 30.01 in 0 mi NNW 4.5 mph - - Fog Partial Fog
8:20 AM 53.6 °F 53.6 °F 100% 30.01 in 0.0 mi North 4.6 mph - N/A Fog Fog
8:50 AM 53.6 °F 53.6 °F 100% 30.01 in 0.1 mi NNE 3.5 mph - N/A Fog Fog
9:20 AM 53.6 °F 53.6 °F 100% 30.01 in 0.1 mi ENE 3.5 mph - N/A Fog Fog
9:50 AM 53.6 °F 53.6 °F 100% 30.01 in 0.1 mi NE 5.8 mph - N/A Fog Fog
10:20 AM 55.4 °F 53.6 °F 94% 30.04 in 0.2 mi South 3.5 mph - N/A Fog Fog
10:50 AM 55.4 °F 53.6 °F 94% 30.01 in 0.4 mi Variable 2.3 mph - N/A Fog Fog
11:00 AM 55 °F 54 °F 93% 30.03 in 0 mi North 2.2 mph - - Fog Partial Fog
11:20 AM 57.2 °F 55.4 °F 94% 30.01 in 2.5 mi NE 4.6 mph - N/A   Scattered Clouds
11:50 AM 59.0 °F 55.4 °F 88% 30.01 in 3.1 mi North 3.5 mph - N/A   Partly Cloudy
12:20 PM 59.0 °F 55.4 °F 88% 30.01 in 3.1 mi NNE 5.8 mph - N/A   Partly Cloudy
12:50 PM 59.0 °F 55.4 °F 88% 30.01 in 3.7 mi NE 4.6 mph - N/A   Partly Cloudy
1:20 PM 62.6 °F 57.2 °F 82% 30.01 in 4.3 mi NE 4.6 mph - N/A   Partly Cloudy
1:50 PM 64.4 °F 57.2 °F 77% 30.01 in 4.3 mi North 3.5 mph - N/A   Unknown
2:00 PM 64 °F 58 °F 75% 30.01 in 4 mi North 4.5 mph - -   Mostly Cloudy
2:20 PM 64.4 °F 57.2 °F 77% 30.01 in 3.7 mi North 5.8 mph - N/A   Unknown
2:50 PM 64.4 °F 59.0 °F 83% 30.01 in 3.7 mi NNE 6.9 mph - N/A   Unknown
3:20 PM 66.2 °F 57.2 °F 73% 29.98 in 3.1 mi NE 6.9 mph - N/A   Haze
3:50 PM 66.2 °F 59.0 °F 78% 29.98 in 3.7 mi NNE 4.6 mph - N/A   Unknown
4:20 PM 66.2 °F 57.2 °F 73% 29.98 in - ENE 6.9 mph - N/A   Clear
4:50 PM 66.2 °F 59.0 °F 78% 29.98 in - NE 4.6 mph - N/A   Clear
5:00 PM 67 °F 58 °F 67% 29.98 in 6 mi NE 4.5 mph - -   Mostly Cloudy
5:20 PM 64.4 °F 59.0 °F 83% 29.98 in 5.0 mi NE 4.6 mph - N/A   Unknown
5:50 PM 64.4 °F 59.0 °F 83% 29.98 in 5.0 mi NNE 3.5 mph - N/A   Unknown
6:20 PM 64.4 °F 59.0 °F 83% 30.01 in 4.3 mi ENE 5.8 mph - N/A   Unknown
6:50 PM 62.6 °F 59.0 °F 88% 30.01 in 4.3 mi North 2.3 mph - N/A   Unknown
7:20 PM 60.8 °F 57.2 °F 88% 30.01 in 3.7 mi NE 3.5 mph - N/A   Unknown
7:50 PM 60.8 °F 59.0 °F 94% 30.01 in 3.7 mi NE 2.3 mph - N/A   Unknown
8:00 PM 61 °F 58 °F 87% 30.02 in 4 mi NE 2.2 mph - -   Scattered Clouds
8:20 PM 62.6 °F 59.0 °F 88% 30.01 in 3.1 mi Variable 1.2 mph - N/A   Mist
8:50 PM 64.4 °F 57.2 °F 77% 30.01 in 3.7 mi SE 5.8 mph - N/A   Unknown
9:20 PM 64.4 °F 57.2 °F 77% 30.04 in 4.3 mi SSE 4.6 mph - N/A   Unknown
9:50 PM 64.4 °F 57.2 °F 77% 30.04 in 4.3 mi SE 5.8 mph - N/A   Unknown
10:20 PM 64.4 °F 57.2 °F 77% 30.04 in - SSE 5.8 mph - N/A   Clear
10:50 PM 62.6 °F 57.2 °F 82% 30.04 in - SSE 5.8 mph - N/A   Clear
11:00 PM 63 °F 57 °F 75% 30.05 in 6 mi SSE 6.7 mph - -   Scattered Clouds
11:20 PM 62.6 °F 57.2 °F 82% 30.04 in - SSE 6.9 mph - N/A   Clear
11:50 PM 60.8 °F 55.4 °F 82% 30.04 in - SE 9.2 mph - N/A   Clear